Location: Barcelona
(41.3830°N, 2.1830°E)
Time: 16:21:17
(UTC+02:00)

ISS - Pass Details

Date: 19 September 2019
Orbit: 411 x 421 km, 51.6° (Epoch: 18 September)

Event Time Altitude Azimuth Distance (km) Brightness Sun altitude
Rises 22:08:24 0° 248° (WSW) 2,334 0.6 -25.1°
Reaches altitude 10° 22:10:32 10° 255° (WSW) 1,475 -0.4 -25.4°
Enters shadow 22:12:12 25° 269° (W) 862 -1.6 -25.7°
